DateTimeUTC,F1_A11,F1_S11,BsB_S11,BsG_S11,BsR_S11,BbsB_S11,BbsG_S11,BbsR_S11,BaB_A11,BaG_A11,BaR_A11,Tu_S11,T_S11,Uu_S11,U_S11,P_S11,T1_A11
2021-05-01T09:00:00Z,00000200,21000000,,,,,,,0000.52,-000.46,-000.06,16.9,24.2,,00.0,0682.3,31.0
2021-05-01T09:01:00Z,00000200,21000000,,,,,,,0000.34,0000.59,0000.31,16.9,24.2,,00.0,0682.3,31.0
2021-05-01T09:02:00Z,00000200,21000000,,,,,,,0000.72,0000.90,0000.41,16.8,24.2,,00.0,0682.2,31.0
2021-05-01T09:03:00Z,00000200,61000000,,,,,,,0001.46,0001.10,0000.74,16.8,24.2,,00.0,0682.2,31.0
2021-05-01T09:04:00Z,00000200,41000000,-000.16,0000.32,0000.21,-000.17,-000.01,0000.27,0000.44,0000.44,0000.11,17.0,24.0,00.8,00.5,0683.1,31.0
2021-05-01T09:05:00Z,00000200,01000000,-000.08,0000.27,-000.17,0000.42,-000.07,0000.16,0000.17,0000.13,0000.30,17.0,24.0,01.1,00.7,0683.2,31.0
2021-05-01T09:06:00Z,00000200,01000000,0000.46,0000.10,0000.22,0000.21,-000.07,0000.12,0000.27,0000.28,-000.14,17.0,23.9,01.2,00.8,0683.2,31.0
2021-05-01T09:07:00Z,00000200,01000000,-000.01,0000.39,0000.35,-000.02,-000.12,0000.36,0000.34,-000.10,0000.35,17.1,23.9,01.1,00.7,0683.2,31.0
2021-05-01T09:08:00Z,00000200,01000000,0000.20,0000.34,0000.33,0000.51,-000.19,0000.04,-000.67,0000.04,-000.56,17.1,23.9,01.2,00.8,0683.2,31.0
2021-05-01T09:09:00Z,00000200,01000000,0000.01,0000.32,-000.13,-000.00,-000.04,-000.00,0000.23,-000.03,0000.53,17.2,24.0,01.1,00.7,0683.2,31.0
2021-05-01T09:10:00Z,00000200,01000000,0000.28,0000.24,0000.31,-000.29,0000.05,0000.39,0000.91,0000.61,0000.34,17.2,24.0,01.2,00.8,0683.2,31.0
2021-05-01T09:11:00Z,00000200,01000000,0000.13,0000.41,0000.07,0000.18,-000.20,-000.13,0000.25,0000.44,0000.34,17.2,24.0,01.4,00.9,0683.2,31.1
2021-05-01T09:12:00Z,00000200,01000000,0000.31,0000.22,0000.16,0000.33,-000.06,-000.03,0000.28,0000.26,0000.28,17.3,24.0,01.6,01.0,0683.2,31.0
2021-05-01T09:13:00Z,00000200,01000000,0000.82,0000.56,0000.17,0000.13,0000.05,0000.02,0000.64,0000.49,0000.04,17.3,24.0,01.7,01.1,0683.2,31.0
2021-05-01T09:14:00Z,00000200,01000000,0000.72,0000.33,-000.23,-000.01,-000.09,0000.19,0000.29,0000.50,0000.21,17.3,24.0,01.9,01.2,0683.2,31.0
2021-05-01T09:15:00Z,00000200,01000000,0000.35,0000.35,-000.02,0000.25,-000.11,-000.14,0000.09,0000.08,-000.04,17.3,24.0,01.9,01.3,0683.2,31.0
2021-05-01T09:16:00Z,00000200,00000000,0000.91,0000.33,0000.02,-000.24,-000.07,0000.05,0000.32,0000.25,0000.31,17.3,24.0,01.9,01.3,0683.2,31.0
2021-05-01T09:17:00Z,00000200,00000000,0000.54,0000.45,0000.07,0000.60,-000.28,-000.02,0000.19,0000.11,0000.01,17.3,24.0,02.1,01.4,0683.2,31.0
2021-05-01T09:18:00Z,00000200,00000000,0000.48,0000.20,-000.16,-000.45,0000.06,-000.10,-000.01,0000.14,-000.43,17.3,24.0,02.2,01.5,0683.2,31.0
2021-05-01T09:19:00Z,00000200,00000000,0000.41,0000.13,0000.26,0000.36,-000.14,-000.14,-000.34,-000.34,0000.19,17.3,24.0,02.2,01.4,0683.2,31.1
2021-05-01T09:20:00Z,00000200,00000000,0000.75,0000.54,0000.11,0000.11,-000.15,0000.12,-000.43,-000.30,-000.13,17.3,24.0,02.0,01.3,0683.2,31.1
2021-05-01T09:21:00Z,00000200,01000000,0000.46,0000.28,-000.13,0000.20,-000.04,0000.06,-000.48,-000.51,-000.17,17.3,24.0,01.8,01.2,0683.2,31.0
2021-05-01T09:22:00Z,00000200,01000000,0000.73,0000.05,0000.22,0000.11,0000.04,0000.08,-000.23,-000.30,-000.23,17.3,24.0,01.6,01.1,0683.2,31.0
2021-05-01T09:23:00Z,00000200,01000000,-000.13,0000.19,-000.11,0000.01,0000.08,-000.16,0002.11,0002.07,0001.35,17.3,24.0,02.0,01.3,0683.2,31.0
2021-05-01T09:24:00Z,00000200,01000000,0000.87,0000.28,0000.07,0000.42,0000.19,-000.02,-001.48,-001.78,-001.12,17.3,24.0,01.8,01.2,0683.2,31.0
2021-05-01T09:25:00Z,00000200,01000000,-000.69,0000.04,0000.31,0000.23,-000.09,0000.04,-001.61,-001.16,-000.45,17.3,24.0,01.2,00.8,0683.2,31.0
2021-05-01T09:26:00Z,00000200,01000000,-000.13,0000.45,-000.07,0000.54,-000.08,0000.22,-000.43,-000.35,-000.87,17.3,24.0,00.7,00.5,0683.2,31.0
2021-05-01T09:27:00Z,00000200,01000000,0000.82,0000.47,-000.04,0000.23,-000.12,-000.09,0000.14,-000.08,0000.37,17.3,24.0,00.6,00.4,0683.2,31.0
2021-05-01T09:28:00Z,00000200,01000000,0000.20,0000.33,0000.24,0000.24,-000.07,0000.01,0001.10,0001.25,0000.65,17.3,23.9,00.6,00.4,0683.2,31.0
2021-05-01T09:29:00Z,00000200,01000000,0000.76,0000.36,0000.15,0000.06,-000.02,0000.08,-001.11,-001.36,-000.51,17.3,23.9,00.7,00.5,0683.3,31.0
2021-05-01T09:30:00Z,00000200,01000000,0000.68,0000.19,0000.30,0000.22,0000.08,0000.07,-000.18,0000.31,0000.02,17.3,23.9,00.5,00.4,0683.2,31.1
2021-05-01T09:31:00Z,00000200,01000000,-000.03,0000.04,-000.00,0000.10,-000.03,0000.07,0000.02,-000.39,-000.21,17.3,23.9,00.4,00.3,0683.3,31.0
2021-05-01T09:32:00Z,00000200,01000000,0000.96,0000.27,0000.08,0000.61,-000.11,0000.22,-000.27,-000.31,0000.03,17.3,23.9,00.4,00.3,0683.3,31.0
2021-05-01T09:33:00Z,00000200,01000000,0000.69,0000.15,0000.10,0000.01,-000.28,0000.26,-000.43,-000.20,-000.21,17.3,23.9,00.3,00.2,0683.3,31.0
2021-05-01T09:34:00Z,00000200,01000000,0000.27,0000.13,-000.03,-000.05,-000.09,0000.04,-000.21,-000.59,-000.17,17.3,23.9,00.2,00.2,0683.3,31.0
2021-05-01T09:35:00Z,00000200,01000000,0000.96,0000.15,-000.23,0000.01,0000.05,0000.10,-000.07,0000.23,-000.09,17.3,23.9,00.2,00.1,0683.3,31.0
2021-05-01T09:36:00Z,00000200,01000000,0000.57,0000.41,-000.06,-000.05,-000.10,-000.01,-000.21,-000.13,-000.26,17.3,23.9,00.2,00.1,0683.3,31.0
2021-05-01T09:37:00Z,00000200,01000000,0000.04,0000.40,-000.15,0000.23,-000.17,-000.06,-000.37,-000.10,0000.03,17.3,23.9,00.1,00.1,0683.3,31.0
2021-05-01T09:38:00Z,00000200,01000000,0000.36,0000.23,0000.27,0001.09,-000.08,0000.00,0000.34,0000.18,0000.31,17.3,23.9,00.1,00.1,0683.3,31.0
2021-05-01T09:39:00Z,00000200,01000000,0000.33,0000.33,-000.08,-000.19,-000.24,0000.22,-000.25,-000.13,-000.30,17.3,23.9,00.1,00.1,0683.3,31.0
2021-05-01T09:40:00Z,00000200,01000000,0000.19,0000.49,0000.04,0000.31,-000.28,0000.06,0000.32,0000.32,0000.42,17.3,23.9,00.1,00.1,0683.3,31.0
2021-05-01T09:41:00Z,00000200,01000000,0000.36,0000.06,0000.04,0000.01,-000.21,0000.42,0000.79,0000.26,0000.13,17.3,23.9,00.2,00.1,0683.3,31.0
2021-05-01T09:42:00Z,00000200,01000000,0000.02,0000.06,0000.21,0000.43,-000.28,0000.19,0000.41,0000.38,0000.48,17.3,23.9,00.3,00.2,0683.3,31.0
2021-05-01T09:43:00Z,00000200,01000000,0000.52,0000.11,-000.04,0000.46,-000.26,0000.04,0000.40,0000.59,0000.23,17.3,23.9,00.4,00.2,0683.2,31.0
2021-05-01T09:44:00Z,00000200,01000000,-000.41,0000.23,0000.26,-000.07,-000.02,0000.00,0000.33,0000.24,0000.21,17.3,23.9,00.6,00.4,0683.2,31.0
2021-05-01T09:45:00Z,00000200,01000000,0000.21,0000.25,-000.10,0000.18,-000.09,0000.02,0000.00,-000.19,-000.25,17.3,23.9,00.6,00.4,0683.3,31.0
2021-05-01T09:46:00Z,00000200,01000000,-000.18,0000.10,-000.09,-000.47,-000.17,0000.18,0000.65,0000.83,0000.82,17.3,23.9,00.8,00.5,0683.3,31.0
2021-05-01T09:47:00Z,00000200,01000000,-000.14,-000.03,0000.06,-000.22,-000.27,0000.30,0000.14,0000.01,0000.02,17.3,23.9,00.8,00.5,0683.3,31.0
2021-05-01T09:48:00Z,00000200,01000000,0000.56,0000.20,0000.07,0000.51,-000.01,0000.02,0000.11,0000.15,0000.27,17.3,23.9,00.8,00.5,0683.3,31.1
2021-05-01T09:49:00Z,00000200,01000000,0000.68,0000.25,-000.11,0000.07,0000.02,-000.27,0000.26,0000.38,-000.32,17.3,23.9,00.9,00.6,0683.3,31.0
2021-05-01T09:50:00Z,00000200,01000000,-000.21,0000.31,-000.32,-000.11,-000.09,0000.10,-000.16,0000.10,0000.06,17.3,23.9,01.0,00.7,0683.3,31.0
2021-05-01T09:51:00Z,00000200,01000000,0000.51,0000.14,0000.05,0000.54,-000.12,-000.01,0000.03,-000.20,-000.01,17.3,23.9,01.0,00.7,0683.3,31.0
2021-05-01T09:52:00Z,00000200,01000000,-000.28,0000.30,0000.27,0000.22,-000.12,0000.16,-000.37,0000.02,0000.08,17.3,23.9,00.9,00.6,0683.3,31.0
2021-05-01T09:53:00Z,00000200,01000000,0000.98,0000.27,0000.08,0000.10,0000.13,0000.41,-000.46,-000.58,-000.60,17.3,23.9,00.7,00.5,0683.3,31.1
2021-05-01T09:54:00Z,00000200,01000000,0000.14,0000.24,-000.08,0000.05,0000.03,0000.01,-000.14,-000.33,-000.10,17.4,23.9,00.5,00.3,0683.3,31.0
2021-05-01T09:55:00Z,00000200,01000000,0000.16,0000.32,0000.26,0000.40,-000.07,0000.10,-000.21,-000.01,0000.02,17.4,24.0,00.5,00.3,0683.3,31.0
2021-05-01T09:56:00Z,00000200,01000000,0000.74,0000.34,-000.11,-000.08,-000.01,-000.22,0000.36,0000.08,0000.06,17.4,24.0,00.5,00.3,0683.3,31.0
2021-05-01T09:57:00Z,00000200,41000000,,,,,,,0000.14,0000.47,-000.02,17.5,24.0,00.9,00.6,0683.3,31.1
2021-05-01T09:58:00Z,00000200,61000000,,,,,,,-000.35,-000.68,0000.20,17.2,24.1,00.4,00.2,0682.3,31.1
2021-05-01T09:59:00Z,00000200,21000000,,,,,,,0000.05,0000.08,-000.25,17.2,24.2,00.3,00.2,0682.3,31.1
